Regional Weather Roundup
Issued by NWS Albany, NY

Home | Current Version | Previous Version | Graphics & Text | Print | Product List | Glossary On
Versions: 1 2 3 4 5 6 7 8 9 10 11 12 13 14 15 16 17 18 19 20 21 22 23 24 25 26 27 28 29 30 31 32 33 34 35 36 37 38 39 40 41 42 43 44 45 46 47 48 49 50
000
ASUS41 KALY 050810
RWRALY

NEW YORK STATE HOURLY WEATHER ROUNDUP
NATIONAL WEATHER SERVICE ALBANY NY
400 AM EDT THU MAY 05 2016

NOTE: "FAIR" INDICATES FEW OR NO CLOUDS BELOW 12,000 FEET WITH NO
SIGNIFICANT WEATHER AND/OR NO OBSTRUCTIONS TO VISIBILITY.

NYZ032-033-038>043-046>054-057>066-NYZ062>081-082-084-050900-
EAST


CITY           SKY/WX    TMP DP  RH WIND       PRES   REMARKS
ALBANY         CLOUDY    47  44  90 N6        29.76F
GLENS FALLS    CLOUDY    48  43  82 N6        29.78S
POUGHKEEPSIE   CLOUDY    48  42  80 N7        29.72F
MONTGOMERY     CLOUDY    47  43  86 N8        29.72F
WHITE PLAINS   CLOUDY    46  41  82 N6        29.70F
ISLIP          CLOUDY    46  42  86 NE14      29.68F
NEW YORK CITY  CLOUDY    48  45  89 N10       29.70F
CENTRAL PARK   CLOUDY    47  42  83 VRB5      29.73S
$$

NYZ005>009-017-018-044>046-055-056-050900-
CENTRAL


CITY           SKY/WX    TMP DP  RH WIND       PRES   REMARKS
FULTON         MOCLDY    50  43  77 VRB7      29.76S
SYRACUSE       CLOUDY    48  44  86 E9        29.76R
ROME           CLOUDY    47  44  90 CALM      29.77F
ELMIRA         CLOUDY    50  44  80 NE5       29.72S
BINGHAMTON     CLOUDY    43  41  93 NE5       29.72S
MONTICELLO     CLOUDY    43  41  93 E8        29.73F
$$

NYZ026>034-041>043-087-050900-
NORTH


CITY           SKY/WX    TMP DP  RH WIND       PRES   REMARKS
WATERTOWN      CLOUDY    47  46  97 NE5       29.77S
FORT DRUM      NOT AVBL
MASSENA        CLOUDY    48  43  82 NE6       29.81S
SARANAC LAKE   MOCLDY    39  37  92 CALM      29.76S
PLATTSBURGH    CLOUDY    43  42  97 CALM      29.81S FOG
$$

NYZ001>004-010>016-019>021-085-050900-
WEST


CITY           SKY/WX    TMP DP  RH WIND       PRES   REMARKS
NIAGARA FALLS  CLOUDY    47  43  86 NE9       29.72S
BUFFALO        PTCLDY    47  44  90 NE7       29.71S
DUNKIRK        CLOUDY    48  46  93 NE6       29.70S
JAMESTOWN      CLEAR     48  41  76 NE5       29.68S
WELLSVILLE     CLOUDY    48  46  93 E3        29.70S FOG
ROCHESTER      CLOUDY    52  48  86 E7        29.73S
PENN YAN       CLOUDY    50  46  86 SE5       29.73S
$$

             KEY
       WCI = WIND CHILL INDEX
       VSB = VISIBILITY
       HX  = HEAT INDEX
$$



USA.gov is the U.S. government's official web portal to all federal, state and local government web resources and services.